FW5734 Weather Reports


time (UTC)temp
C
wind
direction
speed
KPH
gust
KPH
rain 1hr
cm
rain 24hr
cm
rain mn
cm
humidity
%
barometer
mb
20260505224320 19 158 8.0 12.9 0.00 0.00 0.00 76 1016.3
20260505223319 19 180 4.8 9.7 0.00 0.00 0.00 73 1016.4
20260505222319 19 203 6.4 12.9 0.00 0.00 0.00 76 1016.6
20260505221339 18 158 4.8 11.3 0.00 0.00 0.00 74 1016.5
20260505220400 18 180 9.7 14.5 0.00 0.00 0.00 78 1016.6
20260505215339 18 180 6.4 11.3 0.00 0.00 0.00 76 1016.8
20260505214321 18 135 4.8 12.9 0.00 0.00 0.00 76 1016.8
20260505213319 18 203 9.7 14.5 0.00 0.00 0.00 74 1016.8
20260505212319 17 180 6.4 11.3 0.00 0.00 0.00 78 1016.8
20260505211319 17 158 8.0 17.7 0.00 0.00 0.00 75 1016.8
20260505210401 18 180 9.7 12.9 0.00 0.00 0.00 76 1016.9
20260505205319 18 158 8.0 11.3 0.00 0.00 0.00 77 1017.0
20260505204340 17 158 3.2 4.8 0.00 0.00 0.00 73 1017.2
20260505203340 17 68 3.2 8.0 0.00 0.00 0.00 77 1017.2
20260505202359 17 203 3.2 6.4 0.00 0.00 0.00 78 1017.2
20260505201319 17 158 4.8 6.4 0.00 0.00 0.00 77 1017.4
20260505200319 16 90 3.2 4.8 0.00 0.00 0.00 75 1017.4
20260505195319 16 90 4.8 6.4 0.00 0.00 0.00 75 1017.5
20260505194319 16 45 3.2 8.0 0.00 0.00 0.00 78 1017.5
20260505193320 16 158 1.6 3.2 0.00 0.00 0.00 77 1017.6
20260505192319 16 180 4.8 8.0 0.00 0.00 0.00 77 1017.6
20260505191319 16 113 3.2 4.8 0.00 0.00 0.00 79 1017.6
20260505190400 15 113 3.2 4.8 0.00 0.00 0.00 79 1017.6
20260505185319 15 248 1.6 3.2 0.00 0.00 0.00 78 1017.6
20260505184318 15 158 3.2 3.2 0.00 0.00 0.00 79 1017.7
20260505183320 15 135 1.6 4.8 0.00 0.00 0.00 81 1017.5
20260505182319 15 225 3.2 4.8 0.00 0.00 0.00 80 1017.5
20260505181319 15 248 1.6 3.2 0.00 0.00 0.00 83 1017.4
20260505180319 14 248 4.8 8.0 0.00 0.00 0.00 81 1017.3
20260505175319 14 203 4.8 8.0 0.00 0.00 0.00 82 1017.4
20260505174319 13 203 1.6 3.2 0.00 0.00 0.00 81 1017.5
20260505173400 13 203 3.2 4.8 0.00 0.00 0.00 82 1017.4
20260505172319 13 203 1.6 1.6 0.00 0.00 0.00 81 1017.4
20260505171319 13 203 1.6 4.8 0.00 0.00 0.00 83 1017.3
20260505170318 13 158 3.2 6.4 0.00 0.00 0.00 82 1017.5
20260505165319 13 180 3.2 6.4 0.00 0.00 0.00 82 1017.3
20260505164319 13 0 1.6 3.2 0.00 0.00 0.00 85 1017.4
20260505163319 13 180 6.4 9.7 0.00 0.00 0.00 85 1017.4
20260505162319 13 203 4.8 8.0 0.00 0.00 0.00 86 1017.3
20260505161318 13 180 4.8 6.4 0.00 0.00 0.00 86 1017.3
20260505160318 12 0 6.4 8.0 0.00 0.00 0.00 87 1017.3
20260505153318 12 203 4.8 6.4 0.00 0.00 0.00 87 1017.2
20260505152359 12 225 1.6 4.8 0.00 0.00 0.00 88 1017.2
20260505151319 12 203 3.2 4.8 0.00 0.00 0.00 88 1017.1
20260505150318 12 203 3.2 6.4 0.00 0.00 0.00 89 1017.1
20260505140318 11 180 1.6 3.2 0.00 0.00 0.00 90 1017.0
20260505124338 11 203 1.6 3.2 0.00 0.00 0.00 91 1016.6
20260505123320 11 203 1.6 3.2 0.00 0.00 0.00 91 1016.6
20260505122320 11 203 1.6 3.2 0.00 0.00 0.00 91 1016.5
20260505121320 11 203 1.6 1.6 0.00 0.00 0.00 91 1016.4
20260505120320 11 203 1.6 1.6 0.00 0.00 0.00 91 1016.3
20260505115320 11 203 1.6 1.6 0.00 0.00 0.00 91 1016.3
20260505114319 11 180 4.8 6.4 0.00 0.00 0.00 91 1016.4
20260505113320 11 180 3.2 4.8 0.00 0.00 0.00 91 1016.4
20260505112320 11 203 1.6 4.8 0.00 0.00 0.00 92 1016.4
20260505111320 11 203 1.6 3.2 0.00 0.00 0.00 91 1016.4
20260505110320 11 203 1.6 3.2 0.00 0.00 0.00 91 1016.3
20260505101320 11 225 3.2 4.8 0.00 0.00 0.00 91 1016.0
20260505100320 11 225 1.6 3.2 0.00 0.00 0.00 91 1016.0
20260505095320 11 225 3.2 4.8 0.00 0.00 0.00 91 1016.0
20260505094340 11 225 1.6 3.2 0.00 0.00 0.00 91 1015.8
20260505093319 11 203 4.8 6.4 0.00 0.00 0.00 91 1015.9
20260505092320 11 225 3.2 4.8 0.00 0.00 0.00 90 1015.8
20260505091340 11 225 3.2 4.8 0.00 0.00 0.00 90 1015.8
20260505090320 11 203 3.2 4.8 0.00 0.00 0.00 90 1015.8
20260505085319 12 180 6.4 8.0 0.00 0.00 0.00 90 1015.8
20260505084340 12 180 3.2 6.4 0.00 0.00 0.00 89 1015.8
20260505083320 12 180 4.8 6.4 0.00 0.00 0.00 89 1015.8
20260505082319 12 0 3.2 3.2 0.00 0.00 0.00 89 1015.8
20260505081319 12 180 3.2 6.4 0.00 0.00 0.00 89 1015.7
20260505080320 12 180 6.4 8.0 0.00 0.00 0.00 88 1015.7
20260505075319 12 158 8.0 11.3 0.00 0.00 0.00 88 1015.7
20260505074340 12 203 8.0 9.7 0.00 0.00 0.00 87 1015.7
20260505073319 12 180 4.8 8.0 0.00 0.00 0.00 87 1015.7
20260505072319 12 180 3.2 4.8 0.00 0.00 0.00 87 1015.8
20260505071320 12 180 6.4 9.7 0.00 0.00 0.00 87 1015.7
20260505070340 12 225 4.8 6.4 0.00 0.00 0.00 86 1015.6
20260505065318 12 180 3.2 4.8 0.00 0.00 0.00 86 1015.5
20260505064319 12 203 3.2 3.2 0.00 0.00 0.00 86 1015.5
20260505063318 12 0.0 1.6 0.00 0.00 0.00 86 1015.5
20260505062319 12 203 3.2 4.8 0.00 0.00 0.00 86 1015.4
20260505061400 12 203 3.2 4.8 0.00 0.00 0.00 86 1015.3
20260505060319 13 0.0 1.6 0.00 0.00 0.00 86 1015.3
20260505055319 13 180 3.2 6.4 0.00 0.00 0.00 86 1015.5
20260505054318 13 0.0 1.6 0.00 0.00 0.00 85 1015.4
20260505053319 13 203 1.6 3.2 0.00 0.00 0.00 87 1015.2
20260505052318 13 203 3.2 4.8 0.00 0.00 0.00 86 1015.2
20260505051318 13 180 1.6 3.2 0.00 0.00 0.00 85 1015.3
20260505050319 13 225 1.6 3.2 0.00 0.00 0.00 86 1015.2
20260505041319 12 203 3.2 6.4 0.00 0.00 0.00 86 1014.7
20260505040318 12 225 3.2 3.2 0.00 0.00 0.00 86 1014.4
20260505035319 13 180 3.2 4.8 0.00 0.00 0.00 85 1014.3
20260505034318 13 180 6.4 9.7 0.00 0.00 0.00 85 1014.2
20260505033318 13 203 3.2 4.8 0.00 0.00 0.00 84 1013.9
20260505032319 13 180 8.0 9.7 0.00 0.00 0.00 83 1013.7
20260505031318 13 225 8.0 9.7 0.00 0.00 0.00 83 1013.6
20260505030318 14 225 3.2 6.4 0.00 0.00 0.00 83 1013.3
20260505025320 15 225 1.6 3.2 0.00 0.00 0.00 81 1013.1
20260505024321 15 180 3.2 4.8 0.00 0.00 0.00 81 1012.9
20260505023320 15 180 4.8 6.4 0.00 0.00 0.00 80 1012.8
20260505022340 16 203 4.8 4.8 0.00 0.00 0.00 79 1012.7
20260505021341 16 180 8.0 11.3 0.00 0.00 0.00 78 1012.6
20260505020320 17 180 11.3 16.1 0.00 0.00 0.00 77 1012.6
20260505015320 17 158 12.9 16.1 0.00 0.00 0.00 76 1012.6
20260505014320 18 180 9.7 14.5 0.00 0.00 0.00 75 1012.6
20260505013320 18 180 6.4 9.7 0.00 0.00 0.00 74 1012.5
20260505012320 18 180 4.8 8.0 0.00 0.00 0.00 74 1012.6
20260505011319 19 0 3.2 6.4 0.00 0.00 0.00 72 1012.7
20260505010321 20 248 1.6 3.2 0.00 0.00 0.00 68 1012.6
20260505005320 20 338 3.2 4.8 0.00 0.00 0.00 69 1012.7
20260505004320 20 225 4.8 9.7 0.00 0.00 0.00 71 1012.7
20260505003320 20 180 9.7 16.1 0.00 0.00 0.00 70 1012.6
20260505002321 20 180 12.9 17.7 0.00 0.00 0.00 73 1012.5
20260505001339 20 203 8.0 11.3 0.00 0.00 0.00 71 1012.7
20260505000319 20 158 11.3 16.1 0.00 0.00 0.00 72 1012.7
20260504235401 20 180 11.3 16.1 0.00 0.00 0.00 72 1012.6
20260504234319 20 180 12.9 16.1 0.00 0.00 0.00 71 1012.7
20260504233319 20 135 9.7 16.1 0.00 0.00 0.00 72 1012.7
20260504232320 20 135 9.7 14.5 0.00 0.00 0.00 71 1012.9
20260504231320 20 180 11.3 20.9 0.00 0.00 0.00 70 1013.0
20260504230319 20 180 9.7 16.1 0.00 0.00 0.00 72 1013.1
20260504225340 20 135 9.7 12.9 0.00 0.00 0.00 71 1013.3